Starlink 4793

operational
NORAD ID: 53867 Int'l Des: 2022-114 Owner: SPXS Country: US Constellation: starlink
LEOCIRCULAR

About Starlink 4793

Description loading...

Live Position

Loading 3D Globe...

Upcoming Passes

Altitude History

Altitude vs Time

uPlot chart will show altitude changes over time

Two-Line Element Set

1 53867U 22114BB 25347.59386354 -.00000088 00000-0 12597-4 0 9998
2 53867 53.2209 300.6826 0001539 87.3553 272.7616 15.08840008180257
Epoch: Dec 13, 2025 • Age: 18 hours

Current Status

Altitude 540.2 km
Velocity 7.60 km/s
Sub-Earth Point 25.65°N, 116.8°E
Launch Date Sep 19, 2022
Age 3.2 years
Type internet

Technical Details

Classification Payload
Mass 305.00 kg
Dry Mass 290.00 kg
Total Mass 305.00 kg
Length 0.20 m
Diameter 2.80 m
Span 9.00 m
Shape Box + pan
Manufacturer SPXS
Bus Type Starlink
Phase Status In Orbit
Owner/State SPXS/US

Large Constellations

Loading constellations...